This is the latest recevied weather packets stored in our database for station/object K5YNC. If no packets are shown the sender has not sent any weather packets the latest 10 day(s).
| Time | Temp. | Humidity | Pressure | Rain* | Wind** | Luminosity | Snow |
|---|---|---|---|---|---|---|---|
| 1777300704 | 26.67° C | 77% | 1008.4 hPa | 0 mm | - | 338 W/m² | - |
| 1777300402 | 26.67° C | 78% | 1008.4 hPa | 0 mm | - | 318 W/m² | - |
| 1777300099 | 26.11° C | 79% | 1008.6 hPa | 0 mm | - | 298 W/m² | - |
| 1777299795 | 26.11° C | 80% | 1008.3 hPa | 0 mm | - | 286 W/m² | - |
| 1777299493 | 25.56° C | 80% | 1008.3 hPa | 0 mm | - | 273 W/m² | - |
| 1777299191 | 25.56° C | 80% | 1008.4 hPa | 0 mm | - | 257 W/m² | - |
| 1777298888 | 25.56° C | 81% | 1008.2 hPa | 0 mm | - | 240 W/m² | - |
| 1777298585 | 25° C | 82% | 1008.2 hPa | 0 mm | - | 224 W/m² | - |
| 1777298281 | 25° C | 82% | 1008.3 hPa | 0 mm | - | 205 W/m² | - |
| 1777297976 | 25° C | 82% | 1008.1 hPa | 0 mm | - | 188 W/m² | - |
| 1777297673 | 25° C | 83% | 1008.2 hPa | 0 mm | - | 176 W/m² | - |
| 1777297371 | 25° C | 83% | 1008.3 hPa | 0 mm | - | 150 W/m² | - |
| 1777297067 | 24.44° C | 84% | 1008.3 hPa | 0 mm | - | 145 W/m² | - |
| 1777296763 | 24.44° C | 84% | 1008.2 hPa | 0 mm | - | 121 W/m² | - |
| 1777296459 | 24.44° C | 84% | 1008.1 hPa | 0 mm | - | 98 W/m² | - |
| 1777296156 | 24.44° C | 84% | 1008.1 hPa | 0 mm | - | 94 W/m² | - |
| 1777295852 | 23.89° C | 84% | 1008.2 hPa | 0 mm | - | 93 W/m² | - |
| 1777295550 | 23.89° C | 85% | 1008.1 hPa | 0 mm | - | 85 W/m² | - |
| 1777295247 | 23.89° C | 85% | 1007.9 hPa | 0 mm | - | 77 W/m² | - |
| 1777294945 | 23.89° C | 85% | 1007.8 hPa | 0 mm | - | 73 W/m² | - |
| 1777294640 | 23.89° C | 85% | 1007.9 hPa | 0 mm | - | 67 W/m² | - |
| 1777294336 | 23.89° C | 86% | 1007.6 hPa | 0 mm | - | 61 W/m² | - |
| 1777294033 | 23.33° C | 86% | 1007.7 hPa | 0 mm | - | 56 W/m² | - |
| 1777293730 | 23.33° C | 86% | 1007.4 hPa | 0 mm | - | 48 W/m² | - |
| 1777293424 | 23.33° C | 86% | 1007.4 hPa | 0 mm | - | 43 W/m² | - |
* Rain latest hour (hover to see other rain measurements)
** Current wind speed in m/s (hover to see current wind gust speed)